M I D A S
Marine Information and Data Acquisition System
Tripno 1449 of the Zeeleeuw from 2008-04-01 04:05:47 to 2008-04-01 08:47:36
Back to CruiseResearch ActivitiesStationsMapUnderway DataData graphs

EquipmentUnitsComments
TimeDGPSUTC
LatitudeDGPSDM.mWGS84
LongitudeDGPSDM.mWGS84
SpeedMeteo Stationm/sRelative wind speed
DirectionMeteo StationdegRelative wind direction
TemperatureMeteo Stationdeg CelciusAir temperature
PressureMeteo StationPaAtmospheric pressure
HumidityMeteo Station%Relative humidity
Missing or incorrect values are displayed as -999
Metereological data collected by the RV Zeeleeuw from 2008-04-01 03:59:59 to 2008-04-01 08:56:44
Time Latitude Longitude Speed Direction Temperature Pressure Humidity
2008-04-01 04:01 51°13.644 2°55.998 -999 -999 -999 -999 -999
2008-04-01 04:02 51°13.643 2°55.999 -999 -999 -999 -999 -999
2008-04-01 04:03 51°13.643 2°55.998 -999 -999 -999 -999 -999
2008-04-01 04:04 51°13.643 2°55.998 -999 -999 -999 -999 -999
2008-04-01 04:05 51°13.644 2°55.998 -999 -999 -999 -999 -999
2008-04-01 04:06 51°13.645 2°55.998 -999 -999 -999 -999 -999
2008-04-01 04:07 51°13.644 2°55.997 -999 -999 -999 -999 -999
2008-04-01 04:08 51°13.658 2°55.948 -999 -999 -999 -999 -999
2008-04-01 04:09 51°13.681 2°55.849 -999 -999 -999 -999 -999
2008-04-01 04:10 51°13.699 2°55.762 -999 -999 -999 -999 -999
2008-04-01 04:11 51°13.704 2°55.711 -999 -999 -999 -999 -999
2008-04-01 04:12 51°13.718 2°55.716 -999 -999 -999 -999 -999
2008-04-01 04:13 51°13.753 2°55.705 -999 -999 -999 -999 -999
2008-04-01 04:14 51°13.802 2°55.661 -999 -999 -999 -999 -999
2008-04-01 04:15 51°13.863 2°55.616 -999 -999 -999 -999 -999
2008-04-01 04:16 51°13.934 2°55.56 -999 -999 -999 -999 -999
2008-04-01 04:17 51°14.007 2°55.505 -999 -999 -999 -999 -999
2008-04-01 04:18 51°14.087 2°55.441 -999 -999 -999 -999 -999
2008-04-01 04:19 51°14.199 2°55.339 -999 -999 -999 -999 -999
2008-04-01 04:20 51°14.312 2°55.202 -999 -999 -999 -999 -999
2008-04-01 04:21 51°14.403 2°55.012 -999 -999 -999 -999 -999
2008-04-01 04:22 51°14.466 2°54.769 -999 -999 -999 -999 -999
2008-04-01 04:23 51°14.538 2°54.467 -999 -999 -999 -999 -999
2008-04-01 04:24 51°14.595 2°54.152 -999 -999 -999 -999 -999
2008-04-01 04:25 51°14.655 2°53.825 -999 -999 -999 -999 -999
2008-04-01 04:26 51°14.703 2°53.509 -999 -999 -999 -999 -999
2008-04-01 04:27 51°14.754 2°53.184 -999 -999 -999 -999 -999
2008-04-01 04:28 51°14.803 2°52.869 -999 -999 -999 -999 -999
2008-04-01 04:29 51°14.848 2°52.545 -999 -999 -999 -999 -999
2008-04-01 04:30 51°14.894 2°52.213 -999 -999 -999 -999 -999
2008-04-01 04:31 51°14.936 2°51.892 -999 -999 -999 -999 -999
2008-04-01 04:32 51°14.977 2°51.56 -999 -999 -999 -999 -999
2008-04-01 04:33 51°15.018 2°51.233 -999 -999 -999 -999 -999
2008-04-01 04:34 51°15.077 2°50.912 -999 -999 -999 -999 -999
2008-04-01 04:35 51°15.135 2°50.591 -999 -999 -999 -999 -999
2008-04-01 04:36 51°15.189 2°50.267 -999 -999 -999 -999 -999
2008-04-01 04:37 51°15.243 2°49.944 -999 -999 -999 -999 -999
2008-04-01 04:38 51°15.297 2°49.624 -999 -999 -999 -999 -999
2008-04-01 04:39 51°15.354 2°49.304 -999 -999 -999 -999 -999
2008-04-01 04:40 51°15.411 2°48.984 -999 -999 -999 -999 -999
2008-04-01 04:41 51°15.467 2°48.667 -999 -999 -999 -999 -999
2008-04-01 04:42 51°15.521 2°48.351 -999 -999 -999 -999 -999
2008-04-01 04:43 51°15.576 2°48.035 -999 -999 -999 -999 -999
2008-04-01 04:44 51°15.633 2°47.717 -999 -999 -999 -999 -999
2008-04-01 04:45 51°15.71 2°47.406 -999 -999 -999 -999 -999
2008-04-01 04:46 51°15.783 2°47.092 -999 -999 -999 -999 -999
2008-04-01 04:47 51°15.858 2°46.779 -999 -999 -999 -999 -999
2008-04-01 04:48 51°15.94 2°46.473 -999 -999 -999 -999 -999
2008-04-01 04:49 51°16.021 2°46.171 -999 -999 -999 -999 -999
2008-04-01 04:50 51°16.101 2°45.871 -999 -999 -999 -999 -999
2008-04-01 04:51 51°16.189 2°45.58 -999 -999 -999 -999 -999
2008-04-01 04:52 51°16.293 2°45.304 -999 -999 -999 -999 -999
2008-04-01 04:53 51°16.403 2°45.031 -999 -999 -999 -999 -999
2008-04-01 04:54 51°16.518 2°44.764 -999 -999 -999 -999 -999
2008-04-01 04:55 51°16.629 2°44.491 -999 -999 -999 -999 -999
2008-04-01 04:56 51°16.741 2°44.217 -999 -999 -999 -999 -999
2008-04-01 04:57 51°16.854 2°43.942 -999 -999 -999 -999 -999
2008-04-01 04:58 51°16.969 2°43.669 -999 -999 -999 -999 -999
2008-04-01 04:59 51°17.083 2°43.394 -999 -999 -999 -999 -999
2008-04-01 05:00 51°17.198 2°43.122 -999 -999 -999 -999 -999
2008-04-01 05:01 51°17.317 2°42.857 -999 -999 -999 -999 -999
2008-04-01 05:02 51°17.443 2°42.597 -999 -999 -999 -999 -999
2008-04-01 05:03 51°17.567 2°42.33 -999 -999 -999 -999 -999
2008-04-01 05:04 51°17.688 2°42.059 -999 -999 -999 -999 -999
2008-04-01 05:05 51°17.808 2°41.787 -999 -999 -999 -999 -999
2008-04-01 05:06 51°17.928 2°41.514 -999 -999 -999 -999 -999
2008-04-01 05:07 51°18.049 2°41.244 -999 -999 -999 -999 -999
2008-04-01 05:08 51°18.169 2°40.974 -999 -999 -999 -999 -999
2008-04-01 05:09 51°18.291 2°40.707 -999 -999 -999 -999 -999
2008-04-01 05:10 51°18.412 2°40.438 -999 -999 -999 -999 -999
2008-04-01 05:11 51°18.533 2°40.17 -999 -999 -999 -999 -999
2008-04-01 05:12 51°18.656 2°39.902 -999 -999 -999 -999 -999
2008-04-01 05:13 51°18.778 2°39.633 -999 -999 -999 -999 -999
2008-04-01 05:14 51°18.899 2°39.365 -999 -999 -999 -999 -999
2008-04-01 05:15 51°19.019 2°39.097 -999 -999 -999 -999 -999
2008-04-01 05:16 51°19.139 2°38.828 -999 -999 -999 -999 -999
2008-04-01 05:17 51°19.26 2°38.559 -999 -999 -999 -999 -999
2008-04-01 05:18 51°19.38 2°38.292 -999 -999 -999 -999 -999
2008-04-01 05:19 51°19.502 2°38.025 12.1 307 -999 -999 -999
2008-04-01 05:20 51°19.62 2°37.768 13.8 307 7 101910 98
2008-04-01 05:21 51°19.737 2°37.511 11.5 306 7.1 101870 98
2008-04-01 05:22 51°19.861 2°37.244 9.4 305 7.1 101870 98
2008-04-01 05:23 51°19.973 2°37.012 8.9 307 7.1 101870 98
2008-04-01 05:24 51°20.039 2°36.931 7 16 7.1 101920 98
2008-04-01 05:25 51°20.081 2°36.904 7.6 309 7.2 101920 98
2008-04-01 05:26 51°20.103 2°36.889 5.6 304 7.1 101910 98
2008-04-01 05:27 51°20.112 2°36.895 10 309 7.2 101930 98
2008-04-01 05:28 51°20.114 2°36.92 10.4 51 7.1 101930 98
2008-04-01 05:29 51°20.112 2°36.944 8.2 55 7.1 101930 98
2008-04-01 05:30 51°20.111 2°36.966 9.7 57 7.1 101940 98
2008-04-01 05:31 51°20.114 2°36.986 10.9 53 7.1 101920 98
2008-04-01 05:32 51°20.138 2°36.973 12.9 309 7.1 101930 98
2008-04-01 05:33 51°20.151 2°36.925 10.3 304 7.1 101930 98
2008-04-01 05:34 51°20.142 2°36.873 11.9 304 7.1 101900 98
2008-04-01 05:35 51°20.115 2°36.854 8.5 342 7.1 101910 98
2008-04-01 05:36 51°20.103 2°36.867 11.1 350 7.1 101910 98
2008-04-01 05:37 51°20.099 2°36.89 9.2 1 7.1 101900 98
2008-04-01 05:38 51°20.101 2°36.914 8.8 9 7.1 101910 98
2008-04-01 05:39 51°20.108 2°36.936 10.7 13 7.1 101910 98
2008-04-01 05:40 51°20.118 2°36.955 9.9 19 7 101910 98
2008-04-01 05:41 51°20.129 2°36.973 10.3 23 7 101900 98
2008-04-01 05:42 51°20.139 2°36.989 10.2 25 7 101900 98
2008-04-01 05:43 51°20.151 2°37.005 7.7 24 7 101890 98
2008-04-01 05:44 51°20.161 2°37.02 10.4 20 7 101890 98
2008-04-01 05:45 51°20.172 2°37.035 8.6 22 7 101900 98
2008-04-01 05:46 51°20.183 2°37.05 8.8 22 7 101900 98
2008-04-01 05:47 51°20.193 2°37.066 8.9 18 7 101890 98
2008-04-01 05:48 51°20.203 2°37.082 9.2 23 7 101880 98
2008-04-01 05:49 51°20.214 2°37.098 9 17 7 101890 98
2008-04-01 05:50 51°20.204 2°37.146 11.1 351 7 101880 98
2008-04-01 05:51 51°20.161 2°37.164 11.9 327 6.9 101870 98
2008-04-01 05:52 51°20.14 2°37.12 12.8 308 6.9 101860 98
2008-04-01 05:53 51°20.142 2°37.074 11 310 6.9 101860 99
2008-04-01 05:54 51°20.144 2°37.041 11.5 303 7 101870 99
2008-04-01 05:55 51°20.146 2°37.02 9.3 303 7 101870 99
2008-04-01 05:56 51°20.151 2°37.011 11.3 238 7 101870 99
2008-04-01 05:57 51°20.163 2°37.015 8.9 306 7 101870 99
2008-04-01 05:58 51°20.177 2°37.024 10.5 257 7 101870 99
2008-04-01 05:59 51°20.19 2°37.038 6.9 263 6.9 101870 99
2008-04-01 06:00 51°20.202 2°37.055 6.3 308 6.9 101870 99
2008-04-01 06:01 51°20.214 2°37.073 9.2 304 6.9 101870 99
2008-04-01 06:02 51°20.227 2°37.092 7.8 304 6.9 101870 99
2008-04-01 06:03 51°20.24 2°37.11 5.7 305 6.9 101860 99
2008-04-01 06:04 51°20.252 2°37.126 7.5 261 6.9 101880 99
2008-04-01 06:05 51°20.268 2°37.116 12.7 306 6.9 101870 99
2008-04-01 06:06 51°20.274 2°37.084 12.5 31 6.9 101860 99
2008-04-01 06:07 51°20.265 2°37.056 10.3 303 6.9 101850 99
2008-04-01 06:08 51°20.252 2°37.044 10 325 6.9 101860 99
2008-04-01 06:09 51°20.249 2°37.046 9.6 324 6.9 101870 99
2008-04-01 06:10 51°20.252 2°37.052 11.5 324 6.9 101870 99
2008-04-01 06:11 51°20.256 2°37.052 11.4 308 6.9 101860 99
2008-04-01 06:12 51°20.259 2°37.039 9.5 305 6.9 101860 99
2008-04-01 06:13 51°20.257 2°37.019 11.7 307 6.9 101850 99
2008-04-01 06:14 51°20.251 2°37 12.2 308 6.9 101860 99
2008-04-01 06:15 51°20.243 2°36.991 11.8 327 6.9 101870 99
2008-04-01 06:16 51°20.235 2°36.992 9.2 332 6.9 101880 99
2008-04-01 06:17 51°20.232 2°37.002 11.7 333 6.9 101870 99
2008-04-01 06:18 51°20.234 2°37.025 10.1 341 6.9 101870 99
2008-04-01 06:19 51°20.242 2°37.055 11.1 357 6.9 101870 99
2008-04-01 06:20 51°20.233 2°37.093 10.1 349 6.9 101860 99
2008-04-01 06:21 51°20.21 2°37.118 10.5 334 6.9 101880 99
2008-04-01 06:22 51°20.193 2°37.118 9 306 7 101890 99
2008-04-01 06:23 51°20.195 2°37.115 11.7 303 7 101870 99
2008-04-01 06:24 51°20.206 2°37.11 10.1 304 7 101900 99
2008-04-01 06:25 51°20.215 2°37.099 9 305 7 101890 99
2008-04-01 06:26 51°20.219 2°37.087 11.4 308 7 101890 99
2008-04-01 06:27 51°20.218 2°37.078 12.4 309 7 101890 99
2008-04-01 06:28 51°20.214 2°37.067 8.7 305 7 101900 99
2008-04-01 06:29 51°20.207 2°37.056 9.4 321 7.1 101890 99
2008-04-01 06:30 51°20.198 2°37.045 10.2 323 7.1 101900 99
2008-04-01 06:31 51°20.187 2°37.034 10.4 322 7.1 101900 99
2008-04-01 06:32 51°20.185 2°37.035 8 305 7.1 101900 99
2008-04-01 06:33 51°20.193 2°37.045 9.7 34 7.1 101900 99
2008-04-01 06:34 51°20.208 2°37.064 9 306 7.2 101900 99
2008-04-01 06:35 51°20.223 2°37.089 12.8 305 7.2 101900 99
2008-04-01 06:36 51°20.239 2°37.113 12.2 305 7.2 101910 99
2008-04-01 06:37 51°20.259 2°37.104 9.5 305 7.2 101900 99
2008-04-01 06:38 51°20.265 2°37.069 9.8 36 7.2 101890 99
2008-04-01 06:39 51°20.262 2°37.053 10.8 307 7.2 101890 99
2008-04-01 06:40 51°20.257 2°37.052 8.6 323 7.2 101890 99
2008-04-01 06:41 51°20.255 2°37.055 10.3 308 7.3 101900 99
2008-04-01 06:42 51°20.247 2°37.056 9 326 7.2 101890 99
2008-04-01 06:43 51°20.238 2°37.056 10.8 324 7.3 101900 99
2008-04-01 06:44 51°20.236 2°37.057 9.6 35 7.3 101900 99
2008-04-01 06:45 51°20.237 2°37.057 9.7 305 7.3 101890 99
2008-04-01 06:46 51°20.241 2°37.054 13.5 34 7.3 101890 99
2008-04-01 06:47 51°20.249 2°37.051 11.3 32 7.3 101890 99
2008-04-01 06:48 51°20.257 2°37.047 8.7 307 7.3 101900 99
2008-04-01 06:49 51°20.265 2°37.043 11.8 38 7.3 101900 99
2008-04-01 06:50 51°20.273 2°37.036 10.1 304 7.3 101880 99
2008-04-01 06:51 51°20.274 2°37.023 9.5 304 7.4 101880 99
2008-04-01 06:52 51°20.272 2°37.012 10.4 316 7.4 101880 99
2008-04-01 06:53 51°20.265 2°37.009 11.2 303 7.4 101880 99
2008-04-01 06:54 51°20.259 2°37.016 11.2 329 7.4 101880 98
2008-04-01 06:55 51°20.251 2°37.027 9.5 328 7.4 101870 99
2008-04-01 06:56 51°20.243 2°37.038 10.1 305 7.4 101870 98
2008-04-01 06:57 51°20.237 2°37.044 10.7 308 7.4 101870 98
2008-04-01 06:58 51°20.237 2°37.04 12.4 304 7.4 101860 98
2008-04-01 06:59 51°20.241 2°37.029 9.8 310 7.4 101860 98
2008-04-01 07:00 51°20.243 2°37.022 12.2 307 7.4 101870 98
2008-04-01 07:01 51°20.243 2°37.018 10.3 320 7.4 101860 98
2008-04-01 07:02 51°20.242 2°37.02 9.3 306 7.5 101870 98
2008-04-01 07:03 51°20.241 2°37.025 9.1 304 7.5 101880 98
2008-04-01 07:04 51°20.238 2°37.028 8.2 306 7.5 101880 98
2008-04-01 07:05 51°20.233 2°37.026 9 305 7.5 101870 98
2008-04-01 07:06 51°20.232 2°37.028 9.2 307 7.5 101870 98
2008-04-01 07:07 51°20.244 2°37.037 10 304 7.4 101880 98
2008-04-01 07:08 51°20.263 2°37.054 12.2 308 7.4 101870 98
2008-04-01 07:09 51°20.284 2°37.078 8.5 305 7.4 101910 98
2008-04-01 07:10 51°20.304 2°37.107 8 306 7.5 101900 98
2008-04-01 07:11 51°20.323 2°37.139 8.6 308 7.4 101900 98
2008-04-01 07:12 51°20.34 2°37.174 8.1 270 7.4 101890 98
2008-04-01 07:13 51°20.366 2°37.192 7.5 308 7.4 101890 98
2008-04-01 07:14 51°20.403 2°37.167 9.2 260 7.4 101870 98
2008-04-01 07:15 51°20.434 2°37.115 14.4 306 7.4 101860 98
2008-04-01 07:16 51°20.457 2°37.083 12.5 306 7.5 101860 98
2008-04-01 07:17 51°20.471 2°37.059 13.3 306 7.5 101850 98
2008-04-01 07:18 51°20.46 2°37.033 11.3 332 7.5 101850 98
2008-04-01 07:19 51°20.415 2°37.046 13 333 7.5 101830 98
2008-04-01 07:20 51°20.354 2°37.051 10 328 7.4 101850 98
2008-04-01 07:21 51°20.288 2°37.04 12.5 328 7.5 101850 98
2008-04-01 07:22 51°20.238 2°37.028 12.5 326 7.5 101850 98
2008-04-01 07:23 51°20.201 2°37.015 12 324 7.5 101850 98
2008-04-01 07:24 51°20.192 2°37.01 12.6 310 7.5 101850 98
2008-04-01 07:25 51°20.204 2°37.011 11.9 305 7.5 101850 98
2008-04-01 07:26 51°20.224 2°37.025 12.8 250 7.5 101850 98
2008-04-01 07:27 51°20.246 2°37.045 11.1 303 7.5 101850 98
2008-04-01 07:28 51°20.267 2°37.07 9 306 7.6 101860 98
2008-04-01 07:29 51°20.289 2°37.098 6.5 304 7.6 101850 98
2008-04-01 07:30 51°20.31 2°37.131 10.5 304 7.5 101840 98
2008-04-01 07:31 51°20.332 2°37.165 8.5 306 7.5 101840 98
2008-04-01 07:32 51°20.353 2°37.2 9 307 7.5 101850 98
2008-04-01 07:33 51°20.375 2°37.236 8.2 270 7.5 101840 98
2008-04-01 07:34 51°20.396 2°37.27 6.7 304 7.5 101840 98
2008-04-01 07:35 51°20.418 2°37.304 9.4 262 7.4 101830 98
2008-04-01 07:36 51°20.44 2°37.317 13.7 306 7.5 101830 98
2008-04-01 07:37 51°20.442 2°37.284 10.2 304 7.5 101830 98
2008-04-01 07:38 51°20.411 2°37.298 13.2 350 7.5 101830 98
2008-04-01 07:39 51°20.333 2°37.391 13.4 345 7.4 101800 98
2008-04-01 07:40 51°20.212 2°37.497 15.3 345 7.4 101780 98
2008-04-01 07:41 51°20.099 2°37.664 15.7 351 7.4 101760 98
2008-04-01 07:42 51°19.982 2°37.847 16 349 7.4 101770 98
2008-04-01 07:43 51°19.869 2°38.026 13.2 348 7.4 101800 98
2008-04-01 07:44 51°19.751 2°38.208 15.7 347 7.4 101810 98
2008-04-01 07:45 51°19.637 2°38.386 14.3 352 7.4 101760 98
2008-04-01 07:46 51°19.523 2°38.574 16.7 355 7.4 101790 98
2008-04-01 07:47 51°19.421 2°38.772 14.9 353 7.4 101770 98
2008-04-01 07:48 51°19.318 2°38.98 14.4 353 7.4 101810 98
2008-04-01 07:49 51°19.218 2°39.185 14.1 353 7.4 101760 98
2008-04-01 07:50 51°19.119 2°39.386 16.3 353 7.5 101770 98
2008-04-01 07:51 51°19.017 2°39.593 16.2 355 7.4 101770 98
2008-04-01 07:52 51°18.917 2°39.792 12.7 352 7.5 101760 98
2008-04-01 07:53 51°18.813 2°39.999 16.3 353 7.4 101760 98
2008-04-01 07:54 51°18.71 2°40.204 15.8 353 7.4 101760 98
2008-04-01 07:55 51°18.608 2°40.41 16.6 352 7.4 101760 98
2008-04-01 07:56 51°18.505 2°40.62 14.8 353 7.4 101760 98
2008-04-01 07:57 51°18.4 2°40.826 16 353 7.4 101750 97
2008-04-01 07:58 51°18.298 2°41.031 16.4 352 7.4 101750 97
2008-04-01 07:59 51°18.191 2°41.241 14.6 352 7.4 101760 97
2008-04-01 08:00 51°18.084 2°41.445 14.8 352 7.4 101770 97
2008-04-01 08:01 51°17.982 2°41.642 15.8 354 7.4 101760 97
2008-04-01 08:02 51°17.877 2°41.847 14.2 353 7.4 101770 97
2008-04-01 08:03 51°17.778 2°42.047 15.3 353 7.4 101790 97
2008-04-01 08:04 51°17.676 2°42.251 14.5 353 7.4 101760 97
2008-04-01 08:05 51°17.566 2°42.467 14.4 352 7.4 101760 97
2008-04-01 08:06 51°17.455 2°42.686 14.7 349 7.4 101760 97
2008-04-01 08:07 51°17.346 2°42.918 17.5 355 7.4 101770 97
2008-04-01 08:08 51°17.23 2°43.176 17 355 7.4 101760 97
2008-04-01 08:09 51°17.116 2°43.426 16.6 354 7.4 101750 97
2008-04-01 08:10 51°17 2°43.674 16.1 353 7.4 101740 97
2008-04-01 08:11 51°16.886 2°43.922 15.3 352 7.4 101750 97
2008-04-01 08:12 51°16.775 2°44.164 16.5 352 7.4 101740 97
2008-04-01 08:13 51°16.664 2°44.414 15.3 350 7.4 101750 97
2008-04-01 08:14 51°16.553 2°44.661 15.4 353 7.4 101750 97
2008-04-01 08:15 51°16.44 2°44.912 15.1 354 7.4 101760 97
2008-04-01 08:16 51°16.335 2°45.165 15 353 7.4 101740 97
2008-04-01 08:17 51°16.232 2°45.421 15.6 355 7.4 101740 97
2008-04-01 08:18 51°16.126 2°45.678 14.4 356 7.4 101750 97
2008-04-01 08:19 51°16.029 2°45.945 14.2 359 7.4 101760 97
2008-04-01 08:20 51°15.954 2°46.237 13.2 1 7.4 101760 97
2008-04-01 08:21 51°15.888 2°46.541 14.6 360 7.4 101760 97
2008-04-01 08:22 51°15.828 2°46.855 14.1 -999 7.4 101750 97
2008-04-01 08:23 51°15.774 2°47.167 12.9 360 7.4 101760 97
2008-04-01 08:24 51°15.721 2°47.489 14.1 2 7.4 101760 97
2008-04-01 08:25 51°15.668 2°47.805 12.4 2 7.4 101770 97
2008-04-01 08:26 51°15.615 2°48.115 13.1 358 7.4 101760 97
2008-04-01 08:27 51°15.559 2°48.432 11.7 360 7.4 101770 97
2008-04-01 08:28 51°15.518 2°48.751 12 1 7.4 101770 97
2008-04-01 08:29 51°15.477 2°49.083 12.8 4 7.4 101760 97
2008-04-01 08:30 51°15.451 2°49.412 13.1 5 7.4 101760 97
2008-04-01 08:31 51°15.424 2°49.747 11.5 3 7.4 101750 96
2008-04-01 08:32 51°15.394 2°50.085 9.7 3 7.4 101770 96
2008-04-01 08:33 51°15.367 2°50.411 11.9 1 7.4 101750 96
2008-04-01 08:34 51°15.341 2°50.748 11.8 6 7.4 101750 96
2008-04-01 08:35 51°15.322 2°51.079 9.2 5 7.4 101750 97
2008-04-01 08:36 51°15.302 2°51.422 11 5 7.4 101750 97
2008-04-01 08:37 51°15.274 2°51.762 13.5 359 7.4 101740 96
2008-04-01 08:38 51°15.211 2°52.099 14.2 2 7.4 101730 96
2008-04-01 08:39 51°15.13 2°52.409 14.4 359 7.5 101730 96
2008-04-01 08:40 51°15.044 2°52.728 15.2 359 7.5 101730 96
2008-04-01 08:41 51°14.96 2°53.044 15.2 358 7.5 101720 96
2008-04-01 08:42 51°14.877 2°53.35 13.4 356 7.5 101730 96
2008-04-01 08:43 51°14.787 2°53.659 13.1 358 7.6 101730 96
2008-04-01 08:44 51°14.7 2°53.961 15.9 357 7.6 101720 95
2008-04-01 08:45 51°14.612 2°54.276 14 359 7.6 101730 95
2008-04-01 08:46 51°14.525 2°54.581 12.5 352 7.7 101740 95
2008-04-01 08:47 51°14.426 2°54.892 14.7 355 7.7 101730 94
2008-04-01 08:48 51°14.308 2°55.164 10.9 347 7.8 101750 94
2008-04-01 08:49 51°14.164 2°55.371 10.7 332 7.9 101770 94
2008-04-01 08:50 51°14.046 2°55.469 11.8 343 8 101800 93
2008-04-01 08:51 51°13.936 2°55.553 8.9 339 8 101810 93
2008-04-01 08:52 51°13.842 2°55.62 13.1 337 8.1 101800 92
2008-04-01 08:53 51°13.763 2°55.71 6.6 332 8.1 101800 92
2008-04-01 08:54 51°13.71 2°55.806 7 347 8.1 101790 91
2008-04-01 08:55 51°13.68 2°55.892 6 6 8.1 101820 91
2008-04-01 08:56 51°13.667 2°55.945 3.6 15 8.1 101820 91